Flag for U.S.A. Weather past 2 weeks in Oxnard, California, U.S.A.

Now
63 °F

Clear.


Feels Like: 63 °F
Forecast: 59 / 70 °F
Wind: 3 mph from Northeast

Location: Oxnard Airport

Current Time: Oct 21, 2014 at 1:02:05 AM

Latest Report: Oct 20, 2014 at 11:51 PM


Visibility: 10 mi

Pressure: 29.90 "Hg

Humidity: 84%

Dew point: 58 °F

Location of OxnardLocation

Historic Weather in Oxnard — Graph

°F

Oxnard temperature yesterday

Maximum temperature yesterday: 71 °F (at 1:51 PM)
Minimum temperature yesterday: 60 °F (at 5:51 AM)
Average temperature yesterday: 66 °F

Past Weeks' High & Low Weather Summary

 TemperatureHumidityPressure
High78 °F (Oct 6, 10:51 AM)100% (Oct 7, 7:51 AM)30.02 "Hg (Oct 7, 7:51 AM)
Low57 °F (Oct 8, 6:51 AM)37% (Oct 6, 8:51 AM)29.80 "Hg (Oct 8, 5:51 PM)
Average67 °F75%29.91 "Hg
* Reported Oct 5 11:51 PM — Oct 20 11:51 PM, Oxnard, Weather by CustomWeather, © 2014

Note: Actual official high and low records may vary slightly from our data, if they occured in-between our weather recording intervals... More about our weather records

Advertising

Oxnard weather history for previous 24 hours

 ConditionsComfort  
Time TempWeatherWind HumidityBarometerVisibility
11:51 PM
Oct 20
63 °FClear.3 mph84%29.90 "Hg10 mi
10:51 PM64 °FClear.No wind84%29.89 "Hg10 mi
9:51 PM64 °FClear.3 mph84%29.89 "Hg10 mi
8:51 PM66 °FClear.5 mph84%29.88 "Hg10 mi
7:51 PM66 °FClear.5 mph81%29.87 "Hg10 mi
6:51 PM68 °FSunny.No wind82%29.87 "Hg10 mi
5:51 PM69 °FSunny.6 mph76%29.86 "Hg10 mi
4:51 PM70 °FSunny.8 mph73%29.86 "Hg10 mi
3:51 PM71 °FSunny.10 mph68%29.88 "Hg10 mi
2:51 PM71 °FSunny.8 mph66%29.89 "Hg10 mi
1:51 PM71 °FScattered clouds.8 mph68%29.90 "Hg10 mi
12:51 PM70 °FOvercast.9 mph71%29.92 "Hg10 mi
11:51 AM70 °FScattered clouds.N/A71%29.93 "Hg10 mi
10:51 AM69 °FOvercast.6 mph73%29.95 "Hg10 mi
9:51 AM68 °FPartly sunny.No wind73%29.94 "Hg8 mi
8:51 AM63 °FFog.7 mph87%29.93 "Hg4 mi
8:00 AM60 °FFog.6 mph93%29.92 "Hg2 mi
6:51 AM60 °FFog.7 mph93%29.90 "Hg2 mi
5:51 AM60 °FFog.5 mph93%29.89 "Hg6 mi
4:51 AM62 °FFog.5 mph93%29.88 "Hg5 mi
3:51 AM63 °FFog.6 mph90%29.88 "Hg6 mi
2:51 AM65 °FOvercast.5 mph87%29.88 "Hg8 mi
1:51 AM65 °FOvercast.No wind85%29.88 "Hg9 mi
Weather by CustomWeather, © 2014

See weather overviewHow to use our weather pages